OBJECT F, 59778

Orbit data source: Space-Track

You're viewing an Uncataloged Satellite

Recently launched and/or uncataloged satellites may have evolving metadata. Metadata may include but not limited to: Owner, Maufacturer, Bus, Motor, and Mission.

OBJECT F, 59778 is a satellite owned by Sitronics (CIS) in SSO that was launched on Thu, 16 May 2024 UTC via a SOYUZ-2-1B launch vehicle from the Plesetsk Missile And Space Complex (PKMTR). Unknown objects in Earth's orbit typically refer to objects detected orbiting the Earth but have not yet been identified or cataloged. These objects could be anything from previously untracked satellites, spent rocket stages, debris from satellite collisions, or even natural meteoroids temporarily captured by Earth's gravity.

Loading next visibility...
Identifier
59778, 2024-092F
Orbit
SSO
Last TLE update
17 hours ago
Origin
Manufacturer
Sputniks
Mission
Operational spacecraft
Bus & Motor
CUBESAT 3U?, Unknown motor
Mass
3 kg wet, 3 kg dry
Launch date (UTC)
2024-05-16 (1 year ago)
Launch vehicle
SOYUZ-2-1B
Launch site
Plesetsk Missile And Space Complex (PKMTR)
Object type
Unknown
Shape & HBR
Unknown
Radar Cross Section
Small (<0.1 m²)

Expand to show TLE details & history

TLE from 17 hours ago
0 OBJECT F
1 59778U 24092F   25128.57574011  .00014119  00000-0  62129-3 0  9990
2 59778  97.6168 246.3968 0011622 133.2281 226.9927 15.21915228 53949
Epoch: 2025-05-08T13:49Z
Definitive object data (Epoch: 2025-05-08T13:49:03.945Z)
Latitude
-0.00002°
Longitude
172.4861°
Altitude
508.61 km
Speed
7.607 km/s
True Right ascension
16h 25m 35s
True Declination
0° 00' 00"
Sunlit
Object was in full shadow at TLE epoch
Visualization TLE readout
Latitude
-63.689°
Longitude
-22.40555°
Altitude
527.598 km
Speed
7.596 km/s
Apparent Right ascension
03h 03m 12s
Apparent Declination
-52° 11' 48"
Sunlit
Object is in daylight
Visualization observer readout
Local Sidereal Time
14:48:55
Azimuth
190.135° SSW
Elevation
-77.476°
Doppler factor
1
Orbital elements
Apogee altitude
505.027 km
Perigee altitude
489.046 km
Semi-major axis
6,875.173 km
Eccentricity
0.0011622
Inclination
97.6168°
RAAN
246.3968°
Arg. of periapsis
133.2281°
True anomaly
226.89541°
Mean anomaly
226.9927°
Eccentric anomaly
226.94404°
Mean motion
3.80731 °/min
BSTAR
0.00062129
Orbital period
94.56 mins
Loading maneuver chart data...
Loading SW <> Apogee altitude chart data...
Loading historical data...
Loading historical data...
Loading historical data...
Loading historical data...
Loading historical data...
Loading historical data...
Loading historical data...

OBJECT F Visibility forecast

Observer location: undefined°, undefined°

Span
Click to sort rows by Start time (UTC) header in descending order
Start Az.
Max El. time (UTC)
Max El. Az.
Max El.
End time (UTC)
End Az.
5 mins2025-05-09 07:19:03.560Z129.493° SE2025-05-09 07:21:03.560Z88.814° E27.352°2025-05-09 07:24:03.560Z14.084° NNE
5 mins2025-05-09 20:23:03.560Z39.48° NE2025-05-09 20:25:03.560Z114.598° SE35.095°2025-05-09 20:28:03.560Z173.086° S
|